contact:dominique.lefevre@mio.osupytheas.fr, maurice.libes@osupytheas.fr, didier.mallarino@osupytheas.fr
Project:EMSO http://www.emso-fr.org/EMSO-France
Depth: 2436.0 m
Title:EMSO Ligure Ouest : Data MII capteur CSTAR
DateTime,Latitude,Longitude,Instrument_Serial,Reference_Counts,Signal_Counts,Corrected_Signal_raw_counts,Calculated_Beam_c_inverse_meters,Internal_thermistor_counts
DateTime,Latitude,Longitude,Instrument_Serial,Reference_Counts,Signal_Counts,Corrected_Signal_raw_counts,Calculated_Beam_c_inverse_meters,Internal_thermistor_counts
2019-09-03T00:00:17,42.805,6.029,CST-1368DR,8098,11339,15406,0.054,551
2019-09-03T00:03:18,42.805,6.029,CST-1368DR,8098,11340,15408,0.054,551
2019-09-03T00:06:20,42.805,6.029,CST-1368DR,8098,11339,15405,0.054,551
2019-09-03T00:09:22,42.805,6.029,CST-1368DR,8099,11341,15407,0.054,551
2019-09-03T00:12:23,42.805,6.029,CST-1368DR,8099,11338,15403,0.055,551
2019-09-03T00:15:25,42.805,6.029,CST-1368DR,8099,11337,15401,0.055,551
2019-09-03T00:18:27,42.805,6.029,CST-1368DR,8099,11340,15405,0.054,551
2019-09-03T00:21:28,42.805,6.029,CST-1368DR,8099,11338,15402,0.055,551
2019-09-03T00:24:30,42.805,6.029,CST-1368DR,8099,11340,15405,0.054,551
2019-09-03T00:27:32,42.805,6.029,CST-1368DR,8099,11335,15399,0.056,551
2019-09-03T00:30:33,42.805,6.029,CST-1368DR,8099,11340,15406,0.054,551
2019-09-03T00:33:35,42.805,6.029,CST-1368DR,8099,11341,15407,0.054,551
2019-09-03T00:36:37,42.805,6.029,CST-1368DR,8099,11341,15407,0.054,550
2019-09-03T00:39:38,42.805,6.029,CST-1368DR,8099,11341,15406,0.054,551
2019-09-03T00:42:40,42.805,6.029,CST-1368DR,8099,11338,15403,0.055,550
2019-09-03T00:45:41,42.805,6.029,CST-1368DR,8098,11339,15406,0.054,551
2019-09-03T00:48:43,42.805,6.029,CST-1368DR,8099,11341,15407,0.054,551
2019-09-03T00:51:45,42.805,6.029,CST-1368DR,8099,11340,15406,0.054,551
2019-09-03T00:54:46,42.805,6.029,CST-1368DR,8099,11339,15404,0.055,551
2019-09-03T00:57:48,42.805,6.029,CST-1368DR,8099,11341,15407,0.054,551
2019-09-03T01:00:50,42.805,6.029,CST-1368DR,8099,11342,15408,0.054,551
2019-09-03T01:03:51,42.805,6.029,CST-1368DR,8098,11341,15408,0.054,550
2019-09-03T01:06:53,42.805,6.029,CST-1368DR,8098,11341,15408,0.054,551
2019-09-03T01:09:55,42.805,6.029,CST-1368DR,8098,11339,15406,0.054,551
2019-09-03T01:12:56,42.805,6.029,CST-1368DR,8098,11337,15403,0.055,551
2019-09-03T01:15:58,42.805,6.029,CST-1368DR,8098,11341,15408,0.054,551
2019-09-03T01:18:59,42.805,6.029,CST-1368DR,8098,11336,15402,0.055,551
2019-09-03T01:22:01,42.805,6.029,CST-1368DR,8098,11340,15408,0.054,550
2019-09-03T01:25:03,42.805,6.029,CST-1368DR,8098,11340,15408,0.054,551
2019-09-03T01:28:05,42.805,6.029,CST-1368DR,8098,11341,15408,0.054,550
2019-09-03T01:31:07,42.805,6.029,CST-1368DR,8098,11338,15405,0.054,551
2019-09-03T01:34:08,42.805,6.029,CST-1368DR,8098,11339,15405,0.054,551
2019-09-03T01:37:10,42.805,6.029,CST-1368DR,8098,11338,15405,0.054,551
2019-09-03T01:40:12,42.805,6.029,CST-1368DR,8098,11340,15407,0.054,551
2019-09-03T01:43:13,42.805,6.029,CST-1368DR,8098,11339,15406,0.054,551
2019-09-03T01:46:15,42.805,6.029,CST-1368DR,8098,11340,15408,0.054,550
2019-09-03T01:49:16,42.805,6.029,CST-1368DR,8098,11337,15403,0.055,551
2019-09-03T01:52:18,42.805,6.029,CST-1368DR,8098,11338,15405,0.054,550
2019-09-03T01:55:20,42.805,6.029,CST-1368DR,8098,11338,15405,0.054,550
2019-09-03T01:58:21,42.805,6.029,CST-1368DR,8098,11338,15404,0.055,551
2019-09-03T02:01:23,42.805,6.029,CST-1368DR,8098,11338,15405,0.054,551
2019-09-03T02:04:25,42.805,6.029,CST-1368DR,8098,11339,15406,0.054,551
2019-09-03T02:07:26,42.805,6.029,CST-1368DR,8098,11340,15407,0.054,551
2019-09-03T02:10:28,42.805,6.029,CST-1368DR,8098,11339,15406,0.054,551
2019-09-03T02:13:30,42.805,6.029,CST-1368DR,8098,11338,15404,0.055,550
2019-09-03T02:16:31,42.805,6.029,CST-1368DR,8098,11337,15404,0.055,551
2019-09-03T02:19:33,42.805,6.029,CST-1368DR,8098,11339,15406,0.054,550
2019-09-03T02:22:35,42.805,6.029,CST-1368DR,8098,11334,15399,0.056,551
2019-09-03T02:25:36,42.805,6.029,CST-1368DR,8098,11339,15405,0.054,551
2019-09-03T02:28:38,42.805,6.029,CST-1368DR,8098,11334,15399,0.056,551
2019-09-03T02:31:39,42.805,6.029,CST-1368DR,8098,11340,15407,0.054,551
2019-09-03T02:34:41,42.805,6.029,CST-1368DR,8098,11335,15400,0.056,551
2019-09-03T02:37:43,42.805,6.029,CST-1368DR,8098,11334,15399,0.056,551
2019-09-03T02:40:44,42.805,6.029,CST-1368DR,8098,11335,15400,0.056,550
2019-09-03T02:43:46,42.805,6.029,CST-1368DR,8098,11337,15404,0.055,551
2019-09-03T02:46:48,42.805,6.029,CST-1368DR,8098,11337,15403,0.055,551
2019-09-03T02:49:49,42.805,6.029,CST-1368DR,8098,11338,15405,0.054,551
2019-09-03T02:52:51,42.805,6.029,CST-1368DR,8098,11337,15403,0.055,551
2019-09-03T02:55:53,42.805,6.029,CST-1368DR,8098,11337,15404,0.055,551
2019-09-03T02:58:54,42.805,6.029,CST-1368DR,8097,11327,15391,0.058,551
2019-09-03T03:01:56,42.805,6.029,CST-1368DR,8097,11338,15406,0.054,551
2019-09-03T03:04:58,42.805,6.029,CST-1368DR,8097,11336,15403,0.055,551
2019-09-03T03:07:59,42.805,6.029,CST-1368DR,8097,11337,15405,0.054,551
2019-09-03T03:11:01,42.805,6.029,CST-1368DR,8097,11336,15403,0.055,551
2019-09-03T03:14:02,42.805,6.029,CST-1368DR,8097,11334,15400,0.056,550
2019-09-03T03:17:04,42.805,6.029,CST-1368DR,8097,11338,15406,0.054,551
2019-09-03T03:20:06,42.805,6.029,CST-1368DR,8097,11337,15405,0.054,551
2019-09-03T03:23:07,42.805,6.029,CST-1368DR,8097,11338,15406,0.054,551
2019-09-03T03:26:09,42.805,6.029,CST-1368DR,8097,11336,15403,0.055,551
2019-09-03T03:29:11,42.805,6.029,CST-1368DR,8097,11336,15404,0.055,551
2019-09-03T03:32:12,42.805,6.029,CST-1368DR,8097,11336,15404,0.055,551
2019-09-03T03:35:14,42.805,6.029,CST-1368DR,8097,11339,15407,0.054,551
2019-09-03T03:38:16,42.805,6.029,CST-1368DR,8098,11338,15404,0.055,551
2019-09-03T03:41:17,42.805,6.029,CST-1368DR,8097,11337,15405,0.054,551
2019-09-03T03:44:19,42.805,6.029,CST-1368DR,8097,11337,15405,0.054,551
2019-09-03T03:47:21,42.805,6.029,CST-1368DR,8097,11337,15404,0.055,551
2019-09-03T03:50:22,42.805,6.029,CST-1368DR,8097,11337,15405,0.054,551
2019-09-03T03:53:24,42.805,6.029,CST-1368DR,8097,11338,15406,0.054,551
2019-09-03T03:56:26,42.805,6.029,CST-1368DR,8097,11337,15405,0.054,551
2019-09-03T03:59:27,42.805,6.029,CST-1368DR,8097,11336,15403,0.055,551
2019-09-03T04:02:29,42.805,6.029,CST-1368DR,8097,11338,15407,0.054,550
2019-09-03T04:05:30,42.805,6.029,CST-1368DR,8097,11338,15406,0.054,551
2019-09-03T04:08:32,42.805,6.029,CST-1368DR,8097,11337,15404,0.055,551
2019-09-03T04:11:34,42.805,6.029,CST-1368DR,8097,11336,15403,0.055,551
2019-09-03T04:14:35,42.805,6.029,CST-1368DR,8097,11335,15402,0.055,551
2019-09-03T04:17:37,42.805,6.029,CST-1368DR,8097,11338,15406,0.054,551
2019-09-03T04:20:39,42.805,6.029,CST-1368DR,8097,11331,15397,0.056,550
2019-09-03T04:23:40,42.805,6.029,CST-1368DR,8097,11328,15392,0.058,550
2019-09-03T04:26:42,42.805,6.029,CST-1368DR,8097,11334,15401,0.055,550
2019-09-03T04:29:44,42.805,6.029,CST-1368DR,8097,11335,15402,0.055,551
2019-09-03T04:32:45,42.805,6.029,CST-1368DR,8097,11337,15404,0.055,551
2019-09-03T04:35:47,42.805,6.029,CST-1368DR,8097,11337,15405,0.054,551
2019-09-03T04:38:49,42.805,6.029,CST-1368DR,8097,11336,15403,0.055,550
2019-09-03T04:41:50,42.805,6.029,CST-1368DR,8097,11337,15405,0.054,550
2019-09-03T04:44:52,42.805,6.029,CST-1368DR,8097,11336,15403,0.055,551
2019-09-03T04:47:54,42.805,6.029,CST-1368DR,8097,11337,15405,0.054,551
2019-09-03T04:50:55,42.805,6.029,CST-1368DR,8097,11337,15405,0.054,550
2019-09-03T04:53:57,42.805,6.029,CST-1368DR,8097,11335,15402,0.055,550
2019-09-03T04:56:58,42.805,6.029,CST-1368DR,8097,11337,15404,0.055,551
2019-09-03T05:00:00,42.805,6.029,CST-1368DR,8097,11336,15403,0.055,551
2019-09-03T05:03:02,42.805,6.029,CST-1368DR,8097,11338,15406,0.054,551
2019-09-03T05:06:03,42.805,6.029,CST-1368DR,8096,11324,15389,0.059,551
2019-09-03T05:09:05,42.805,6.029,CST-1368DR,8096,11335,15404,0.055,551
2019-09-03T05:12:07,42.805,6.029,CST-1368DR,8096,11335,15404,0.055,551
2019-09-03T05:15:08,42.805,6.029,CST-1368DR,8096,11335,15404,0.055,551
2019-09-03T05:18:10,42.805,6.029,CST-1368DR,8096,11318,15381,0.061,550
2019-09-03T05:21:12,42.805,6.029,CST-1368DR,8096,11336,15405,0.054,550
2019-09-03T05:24:13,42.805,6.029,CST-1368DR,8096,11337,15406,0.054,550
2019-09-03T05:27:15,42.805,6.029,CST-1368DR,8096,11337,15406,0.054,551
2019-09-03T05:30:16,42.805,6.029,CST-1368DR,8096,11335,15404,0.055,551
2019-09-03T05:33:18,42.805,6.029,CST-1368DR,8096,11338,15408,0.054,551
2019-09-03T05:36:20,42.805,6.029,CST-1368DR,8096,11328,15395,0.057,550
2019-09-03T05:39:21,42.805,6.029,CST-1368DR,8096,11332,15400,0.056,550
2019-09-03T05:42:23,42.805,6.029,CST-1368DR,8096,11332,15400,0.056,550
2019-09-03T05:45:25,42.805,6.029,CST-1368DR,8096,11336,15406,0.054,550
2019-09-03T05:48:26,42.805,6.029,CST-1368DR,8096,11336,15406,0.054,551
2019-09-03T05:51:28,42.805,6.029,CST-1368DR,8096,11336,15405,0.054,551
2019-09-03T05:54:30,42.805,6.029,CST-1368DR,8096,11335,15404,0.055,551
2019-09-03T05:57:31,42.805,6.029,CST-1368DR,8096,11335,15404,0.055,550
2019-09-03T06:00:33,42.805,6.029,CST-1368DR,8096,11336,15405,0.054,551
2019-09-03T06:03:35,42.805,6.029,CST-1368DR,8096,11336,15405,0.054,551
2019-09-03T06:06:36,42.805,6.029,CST-1368DR,8096,11337,15406,0.054,551
2019-09-03T06:09:38,42.805,6.029,CST-1368DR,8096,11333,15401,0.055,551
2019-09-03T06:12:40,42.805,6.029,CST-1368DR,8096,11335,15404,0.055,551
2019-09-03T06:15:41,42.805,6.029,CST-1368DR,8096,11336,15406,0.054,551
2019-09-03T06:18:43,42.805,6.029,CST-1368DR,8096,11337,15406,0.054,550
2019-09-03T06:21:45,42.805,6.029,CST-1368DR,8096,11336,15405,0.054,551
2019-09-03T06:24:46,42.805,6.029,CST-1368DR,8096,11337,15407,0.054,551
2019-09-03T06:27:48,42.805,6.029,CST-1368DR,8096,11335,15403,0.055,551
2019-09-03T06:30:50,42.805,6.029,CST-1368DR,8096,11335,15404,0.055,551
2019-09-03T06:33:51,42.805,6.029,CST-1368DR,8096,11334,15402,0.055,551
2019-09-03T06:36:53,42.805,6.029,CST-1368DR,8096,11334,15402,0.055,551
2019-09-03T06:39:55,42.805,6.029,CST-1368DR,8096,11335,15403,0.055,551
2019-09-03T06:42:56,42.805,6.029,CST-1368DR,8096,11332,15399,0.056,551
2019-09-03T06:45:58,42.805,6.029,CST-1368DR,8096,11330,15397,0.056,551
2019-09-03T06:49:00,42.805,6.029,CST-1368DR,8096,11331,15399,0.056,551
2019-09-03T06:52:01,42.805,6.029,CST-1368DR,8096,11335,15404,0.055,551
2019-09-03T06:55:03,42.805,6.029,CST-1368DR,8096,11331,15398,0.056,551
2019-09-03T06:58:06,42.805,6.029,CST-1368DR,8096,11331,15399,0.056,550
2019-09-03T07:01:07,42.805,6.029,CST-1368DR,8096,11335,15404,0.055,551
2019-09-03T07:04:09,42.805,6.029,CST-1368DR,8096,11335,15404,0.055,550
2019-09-03T07:07:10,42.805,6.029,CST-1368DR,8096,11331,15399,0.056,551
2019-09-03T07:10:12,42.805,6.029,CST-1368DR,8096,11336,15406,0.054,551
2019-09-03T07:13:14,42.805,6.029,CST-1368DR,8096,11338,15407,0.054,551
2019-09-03T07:16:15,42.805,6.029,CST-1368DR,8096,11331,15399,0.056,551
2019-09-03T07:19:17,42.805,6.029,CST-1368DR,8096,11334,15403,0.055,550
2019-09-03T07:22:19,42.805,6.029,CST-1368DR,8096,11336,15406,0.054,551
2019-09-03T07:25:20,42.805,6.029,CST-1368DR,8096,11335,15403,0.055,551
2019-09-03T07:28:22,42.805,6.029,CST-1368DR,8096,11337,15407,0.054,551
2019-09-03T07:31:24,42.805,6.029,CST-1368DR,8096,11335,15404,0.055,551
2019-09-03T07:34:25,42.805,6.029,CST-1368DR,8096,11335,15403,0.055,551
2019-09-03T07:37:27,42.805,6.029,CST-1368DR,8096,11327,15393,0.058,551
2019-09-03T07:40:29,42.805,6.029,CST-1368DR,8096,11322,15386,0.059,551
2019-09-03T07:43:30,42.805,6.029,CST-1368DR,8096,11332,15400,0.056,551
2019-09-03T07:46:32,42.805,6.029,CST-1368DR,8096,11333,15402,0.055,551
2019-09-03T07:49:34,42.805,6.029,CST-1368DR,8096,11337,15406,0.054,551
2019-09-03T07:52:35,42.805,6.029,CST-1368DR,8096,11336,15405,0.054,550
2019-09-03T07:55:37,42.805,6.029,CST-1368DR,8096,11336,15405,0.054,551
2019-09-03T07:58:38,42.805,6.029,CST-1368DR,8096,11336,15406,0.054,551
2019-09-03T08:01:40,42.805,6.029,CST-1368DR,8096,11337,15407,0.054,551
2019-09-03T08:04:42,42.805,6.029,CST-1368DR,8096,11338,15408,0.054,551
2019-09-03T08:07:43,42.805,6.029,CST-1368DR,8095,11336,15406,0.054,551
2019-09-03T08:10:45,42.805,6.029,CST-1368DR,8096,11336,15406,0.054,551
2019-09-03T08:13:47,42.805,6.029,CST-1368DR,8095,11331,15400,0.056,551
2019-09-03T08:16:48,42.805,6.029,CST-1368DR,8095,11333,15403,0.055,551
2019-09-03T08:19:50,42.805,6.029,CST-1368DR,8095,11335,15405,0.054,551
2019-09-03T08:22:52,42.805,6.029,CST-1368DR,8095,11333,15403,0.055,551
2019-09-03T08:25:53,42.805,6.029,CST-1368DR,8095,11332,15402,0.055,551
2019-09-03T08:28:55,42.805,6.029,CST-1368DR,8095,11333,15403,0.055,551
2019-09-03T08:31:56,42.805,6.029,CST-1368DR,8095,11334,15405,0.054,551
2019-09-03T08:34:58,42.805,6.029,CST-1368DR,8095,11337,15408,0.054,551
2019-09-03T08:38:00,42.805,6.029,CST-1368DR,8095,11336,15406,0.054,551
2019-09-03T08:41:01,42.805,6.029,CST-1368DR,8095,11334,15404,0.055,550
2019-09-03T08:44:03,42.805,6.029,CST-1368DR,8095,11337,15408,0.054,551
2019-09-03T08:47:05,42.805,6.029,CST-1368DR,8095,11336,15406,0.054,551
2019-09-03T08:50:06,42.805,6.029,CST-1368DR,8095,11335,15406,0.054,551
2019-09-03T08:53:08,42.805,6.029,CST-1368DR,8095,11332,15402,0.055,550
2019-09-03T08:56:10,42.805,6.029,CST-1368DR,8095,11334,15405,0.054,551
2019-09-03T08:59:12,42.805,6.029,CST-1368DR,8095,11335,15405,0.054,551
2019-09-03T09:02:13,42.805,6.029,CST-1368DR,8095,11334,15404,0.055,551
2019-09-03T09:05:15,42.805,6.029,CST-1368DR,8095,11333,15403,0.055,551
2019-09-03T09:08:17,42.805,6.029,CST-1368DR,8095,11333,15403,0.055,551
2019-09-03T09:11:18,42.805,6.029,CST-1368DR,8095,11333,15403,0.055,551
2019-09-03T09:14:20,42.805,6.029,CST-1368DR,8095,11335,15406,0.054,551
2019-09-03T09:17:22,42.805,6.029,CST-1368DR,8095,11332,15401,0.055,551
2019-09-03T09:20:23,42.805,6.029,CST-1368DR,8095,11334,15404,0.055,551
2019-09-03T09:23:25,42.805,6.029,CST-1368DR,8095,11335,15405,0.054,551
2019-09-03T09:26:27,42.805,6.029,CST-1368DR,8095,11334,15404,0.055,551
2019-09-03T09:29:28,42.805,6.029,CST-1368DR,8095,11332,15401,0.055,551
2019-09-03T09:32:30,42.805,6.029,CST-1368DR,8095,11335,15406,0.054,551
2019-09-03T09:35:32,42.805,6.029,CST-1368DR,8095,11333,15403,0.055,551
2019-09-03T09:38:33,42.805,6.029,CST-1368DR,8095,11334,15405,0.054,551
2019-09-03T09:41:35,42.805,6.029,CST-1368DR,8095,11332,15402,0.055,551
2019-09-03T09:44:36,42.805,6.029,CST-1368DR,8095,11332,15401,0.055,551
2019-09-03T09:47:38,42.805,6.029,CST-1368DR,8095,11334,15405,0.054,551
2019-09-03T09:50:40,42.805,6.029,CST-1368DR,8095,11334,15405,0.054,551
2019-09-03T09:53:41,42.805,6.029,CST-1368DR,8095,11336,15407,0.054,551
2019-09-03T09:56:43,42.805,6.029,CST-1368DR,8095,11335,15406,0.054,551
2019-09-03T09:59:45,42.805,6.029,CST-1368DR,8095,11335,15405,0.054,551
2019-09-03T10:02:46,42.805,6.029,CST-1368DR,8095,11335,15405,0.054,551
2019-09-03T10:05:48,42.805,6.029,CST-1368DR,8095,11332,15402,0.055,551
2019-09-03T10:08:50,42.805,6.029,CST-1368DR,8095,11334,15404,0.055,551
2019-09-03T10:11:51,42.805,6.029,CST-1368DR,8095,11335,15406,0.054,550
2019-09-03T10:14:53,42.805,6.029,CST-1368DR,8095,11334,15405,0.054,550
2019-09-03T10:17:54,42.805,6.029,CST-1368DR,8095,11334,15405,0.054,551
2019-09-03T10:20:56,42.805,6.029,CST-1368DR,8095,11333,15403,0.055,551
2019-09-03T10:23:58,42.805,6.029,CST-1368DR,8095,11329,15397,0.056,551
2019-09-03T10:26:59,42.805,6.029,CST-1368DR,8095,11332,15402,0.055,550
2019-09-03T10:30:01,42.805,6.029,CST-1368DR,8095,11331,15400,0.056,551
2019-09-03T10:33:03,42.805,6.029,CST-1368DR,8095,11332,15402,0.055,551
2019-09-03T10:36:04,42.805,6.029,CST-1368DR,8095,11331,15400,0.056,550
2019-09-03T10:39:06,42.805,6.029,CST-1368DR,8095,11331,15400,0.056,551
2019-09-03T10:42:08,42.805,6.029,CST-1368DR,8094,11331,15402,0.055,551
2019-09-03T10:45:09,42.805,6.029,CST-1368DR,8095,11334,15405,0.054,551
2019-09-03T10:48:11,42.805,6.029,CST-1368DR,8095,11333,15403,0.055,551
2019-09-03T10:51:13,42.805,6.029,CST-1368DR,8095,11335,15406,0.054,551
2019-09-03T10:54:14,42.805,6.029,CST-1368DR,8095,11334,15405,0.054,550
2019-09-03T10:57:16,42.805,6.029,CST-1368DR,8095,11335,15406,0.054,551
2019-09-03T11:00:17,42.805,6.029,CST-1368DR,8094,11332,15404,0.055,551
2019-09-03T11:03:19,42.805,6.029,CST-1368DR,8095,11334,15404,0.055,550
2019-09-03T11:06:21,42.805,6.029,CST-1368DR,8094,11334,15406,0.054,551
2019-09-03T11:09:22,42.805,6.029,CST-1368DR,8094,11335,15407,0.054,551
2019-09-03T11:12:24,42.805,6.029,CST-1368DR,8094,11334,15406,0.054,551
2019-09-03T11:15:26,42.805,6.029,CST-1368DR,8094,11333,15405,0.054,551
2019-09-03T11:18:27,42.805,6.029,CST-1368DR,8094,11334,15407,0.054,551
2019-09-03T11:21:29,42.805,6.029,CST-1368DR,8094,11335,15407,0.054,551
2019-09-03T11:24:30,42.805,6.029,CST-1368DR,8095,11333,15403,0.055,551
2019-09-03T11:27:32,42.805,6.029,CST-1368DR,8095,11333,15403,0.055,550
2019-09-03T11:30:34,42.805,6.029,CST-1368DR,8094,11328,15398,0.056,551
2019-09-03T11:33:35,42.805,6.029,CST-1368DR,8095,11335,15405,0.054,550
2019-09-03T11:36:37,42.805,6.029,CST-1368DR,8095,11334,15405,0.054,551
2019-09-03T11:39:39,42.805,6.029,CST-1368DR,8094,11334,15405,0.054,550
2019-09-03T11:42:40,42.805,6.029,CST-1368DR,8094,11333,15405,0.054,551
2019-09-03T11:45:42,42.805,6.029,CST-1368DR,8094,11331,15402,0.055,551
2019-09-03T11:48:44,42.805,6.029,CST-1368DR,8094,11333,15405,0.054,551
2019-09-03T11:51:45,42.805,6.029,CST-1368DR,8094,11332,15403,0.055,551
2019-09-03T11:54:47,42.805,6.029,CST-1368DR,8094,11331,15402,0.055,550
2019-09-03T11:57:48,42.805,6.029,CST-1368DR,8094,11331,15402,0.055,551
2019-09-03T12:00:50,42.805,6.029,CST-1368DR,8094,11332,15403,0.055,551
2019-09-03T12:03:52,42.805,6.029,CST-1368DR,8094,11330,15401,0.055,551
2019-09-03T12:06:53,42.805,6.029,CST-1368DR,8094,11332,15403,0.055,551
2019-09-03T12:09:55,42.805,6.029,CST-1368DR,8094,11332,15404,0.055,551
2019-09-03T12:12:57,42.805,6.029,CST-1368DR,8094,11330,15400,0.056,551
2019-09-03T12:15:58,42.805,6.029,CST-1368DR,8094,11330,15400,0.056,551
2019-09-03T12:19:00,42.805,6.029,CST-1368DR,8094,11331,15401,0.055,551
2019-09-03T12:22:01,42.805,6.029,CST-1368DR,8094,11334,15406,0.054,550
2019-09-03T12:25:03,42.805,6.029,CST-1368DR,8094,11333,15405,0.054,551
2019-09-03T12:28:06,42.805,6.029,CST-1368DR,8094,11334,15406,0.054,551
2019-09-03T12:31:08,42.805,6.029,CST-1368DR,8094,11334,15406,0.054,551
2019-09-03T12:34:09,42.805,6.029,CST-1368DR,8094,11330,15401,0.055,551
2019-09-03T12:37:11,42.805,6.029,CST-1368DR,8094,11334,15405,0.054,550
2019-09-03T12:40:12,42.805,6.029,CST-1368DR,8094,11335,15408,0.054,551
2019-09-03T12:43:14,42.805,6.029,CST-1368DR,8094,11334,15405,0.054,551
2019-09-03T12:46:16,42.805,6.029,CST-1368DR,8094,11334,15405,0.054,550
2019-09-03T12:49:17,42.805,6.029,CST-1368DR,8094,11334,15407,0.054,551
2019-09-03T12:52:19,42.805,6.029,CST-1368DR,8094,11334,15406,0.054,551
2019-09-03T12:55:21,42.805,6.029,CST-1368DR,8094,11332,15403,0.055,551
2019-09-03T12:58:22,42.805,6.029,CST-1368DR,8094,11331,15402,0.055,551
2019-09-03T13:01:24,42.805,6.029,CST-1368DR,8094,11324,15392,0.058,551
2019-09-03T13:04:26,42.805,6.029,CST-1368DR,8094,11332,15404,0.055,551
2019-09-03T13:07:27,42.805,6.029,CST-1368DR,8094,11334,15405,0.054,550
2019-09-03T13:10:29,42.805,6.029,CST-1368DR,8094,11333,15404,0.055,550
2019-09-03T13:13:31,42.805,6.029,CST-1368DR,8094,11332,15403,0.055,551
2019-09-03T13:16:32,42.805,6.029,CST-1368DR,8094,11331,15402,0.055,551
2019-09-03T13:19:34,42.805,6.029,CST-1368DR,8094,11331,15402,0.055,550
2019-09-03T13:22:36,42.805,6.029,CST-1368DR,8094,11331,15402,0.055,551
2019-09-03T13:25:37,42.805,6.029,CST-1368DR,8094,11334,15405,0.054,551
2019-09-03T13:28:39,42.805,6.029,CST-1368DR,8094,11332,15403,0.055,551
2019-09-03T13:31:40,42.805,6.029,CST-1368DR,8094,11331,15401,0.055,551
2019-09-03T13:34:42,42.805,6.029,CST-1368DR,8094,11331,15402,0.055,551
2019-09-03T13:37:44,42.805,6.029,CST-1368DR,8094,11332,15403,0.055,551
2019-09-03T13:40:45,42.805,6.029,CST-1368DR,8094,11333,15404,0.055,551
2019-09-03T13:43:47,42.805,6.029,CST-1368DR,8094,11331,15402,0.055,551
2019-09-03T13:46:49,42.805,6.029,CST-1368DR,8094,11333,15404,0.055,551
2019-09-03T13:49:50,42.805,6.029,CST-1368DR,8093,11332,15405,0.054,551
2019-09-03T13:52:52,42.805,6.029,CST-1368DR,8093,11332,15405,0.054,551
2019-09-03T13:55:54,42.805,6.029,CST-1368DR,8094,11333,15405,0.054,551
2019-09-03T13:58:55,42.805,6.029,CST-1368DR,8093,11330,15402,0.055,551
2019-09-03T14:01:57,42.805,6.029,CST-1368DR,8094,11332,15404,0.055,551
2019-09-03T14:04:59,42.805,6.029,CST-1368DR,8094,11332,15403,0.055,551
2019-09-03T14:08:00,42.805,6.029,CST-1368DR,8094,11333,15405,0.054,550
2019-09-03T14:11:02,42.805,6.029,CST-1368DR,8093,11332,15405,0.054,551
2019-09-03T14:14:04,42.805,6.029,CST-1368DR,8093,11332,15406,0.054,551
2019-09-03T14:17:06,42.805,6.029,CST-1368DR,8093,11332,15406,0.054,550
2019-09-03T14:20:07,42.805,6.029,CST-1368DR,8093,11330,15403,0.055,550
2019-09-03T14:23:09,42.805,6.029,CST-1368DR,8093,11331,15404,0.055,551
2019-09-03T14:26:11,42.805,6.029,CST-1368DR,8093,11331,15404,0.055,551
2019-09-03T14:29:12,42.805,6.029,CST-1368DR,8093,11333,15406,0.054,551
2019-09-03T14:32:14,42.805,6.029,CST-1368DR,8093,11332,15405,0.054,551
2019-09-03T14:35:16,42.805,6.029,CST-1368DR,8093,11333,15407,0.054,550
2019-09-03T14:38:17,42.805,6.029,CST-1368DR,8093,11332,15406,0.054,551
2019-09-03T14:41:19,42.805,6.029,CST-1368DR,8093,11331,15404,0.055,550
2019-09-03T14:44:21,42.805,6.029,CST-1368DR,8093,11333,15406,0.054,550
2019-09-03T14:47:22,42.805,6.029,CST-1368DR,8093,11332,15406,0.054,551
2019-09-03T14:50:24,42.805,6.029,CST-1368DR,8093,11333,15407,0.054,551
2019-09-03T14:53:26,42.805,6.029,CST-1368DR,8093,11332,15405,0.054,551
2019-09-03T14:56:27,42.805,6.029,CST-1368DR,8093,11331,15403,0.055,551
2019-09-03T14:59:29,42.805,6.029,CST-1368DR,8093,11332,15405,0.054,551
2019-09-03T15:02:30,42.805,6.029,CST-1368DR,8093,11333,15406,0.054,551
2019-09-03T15:05:32,42.805,6.029,CST-1368DR,8093,11331,15404,0.055,551
2019-09-03T15:08:34,42.805,6.029,CST-1368DR,8093,11331,15404,0.055,551
2019-09-03T15:11:35,42.805,6.029,CST-1368DR,8093,11330,15402,0.055,550
2019-09-03T15:14:37,42.805,6.029,CST-1368DR,8093,11331,15404,0.055,550
2019-09-03T15:17:39,42.805,6.029,CST-1368DR,8093,11332,15405,0.054,551
2019-09-03T15:20:40,42.805,6.029,CST-1368DR,8093,11332,15405,0.054,551
2019-09-03T15:23:42,42.805,6.029,CST-1368DR,8093,11333,15406,0.054,551
2019-09-03T15:26:43,42.805,6.029,CST-1368DR,8093,11334,15407,0.054,551
2019-09-03T15:29:45,42.805,6.029,CST-1368DR,8093,11332,15405,0.054,551
2019-09-03T15:32:47,42.805,6.029,CST-1368DR,8093,11333,15407,0.054,551
2019-09-03T15:35:48,42.805,6.029,CST-1368DR,8093,11331,15404,0.055,550
2019-09-03T15:38:50,42.805,6.029,CST-1368DR,8093,11323,15393,0.058,551
2019-09-03T15:41:52,42.805,6.029,CST-1368DR,8093,11334,15407,0.054,551
2019-09-03T15:44:53,42.805,6.029,CST-1368DR,8093,11332,15405,0.054,551
2019-09-03T15:47:55,42.805,6.029,CST-1368DR,8093,11332,15405,0.054,550
2019-09-03T15:50:57,42.805,6.029,CST-1368DR,8093,11331,15404,0.055,550
2019-09-03T15:53:58,42.805,6.029,CST-1368DR,8093,11332,15406,0.054,551
2019-09-03T15:57:00,42.805,6.029,CST-1368DR,8093,11331,15404,0.055,551
2019-09-03T16:00:01,42.805,6.029,CST-1368DR,8093,11330,15402,0.055,551
2019-09-03T16:03:03,42.805,6.029,CST-1368DR,8093,11331,15404,0.055,551
2019-09-03T16:06:05,42.805,6.029,CST-1368DR,8093,11332,15405,0.054,550
2019-09-03T16:09:06,42.805,6.029,CST-1368DR,8093,11331,15403,0.055,550
2019-09-03T16:12:08,42.805,6.029,CST-1368DR,8093,11332,15405,0.054,551
2019-09-03T16:15:10,42.805,6.029,CST-1368DR,8093,11331,15404,0.055,551
2019-09-03T16:18:11,42.805,6.029,CST-1368DR,8093,11333,15407,0.054,551
2019-09-03T16:21:13,42.805,6.029,CST-1368DR,8092,11332,15406,0.054,551
2019-09-03T16:24:15,42.805,6.029,CST-1368DR,8092,11332,15406,0.054,551
2019-09-03T16:27:16,42.805,6.029,CST-1368DR,8092,11331,15406,0.054,551
2019-09-03T16:30:18,42.805,6.029,CST-1368DR,8092,11331,15406,0.054,551
2019-09-03T16:33:20,42.805,6.029,CST-1368DR,8093,11331,15404,0.055,551
2019-09-03T16:36:21,42.805,6.029,CST-1368DR,8093,11330,15402,0.055,551